Regional Weather Roundup
Issued by NWS Wakefield, VA

Home | Current Version | Previous Version | Text Only | Print | Product List | Glossary Off
Versions: 1 2 3 4 5 6 7 8 9 10 11 12 13 14 15 16 17 18 19 20 21 22 23 24 25 26 27

000
ASUS41 KAKQ 241915
RWRAKQ

REGIONAL WEATHER ROUNDUP
NATIONAL WEATHER SERVICE WAKEFIELD VA
300 PM EDT SAT JUN 24 2017

Note: "fair" indicates few or no clouds below 12,000 feet with no
significant weather and/or obstructions to visibility. * = Denotes
station may not report precipitation (e.g., rain,snow,etc.),
thunder or fog.

VAZ042-051-052>054-056-242000-
NORTHERN VIRGINIA

CITY           SKY/WX    TMP DP  RH WIND       PRES   REMARKS
WASH NATIONAL  PTSUNNY   89  60  37 W15       29.87S
DULLES         PTSUNNY   82  57  42 W9        29.89S
FORT BELVOIR   PTSUNNY   87  57  36 SW8       29.88S
QUANTICO       MOSUNNY   89  59  36 NW7       29.88S
FREDERICKSBRG* MOSUNNY   87  66  48 NW9       29.87S
STAFFORD*      SUNNY     87  59  38 NW13      29.93R
WARRENTON      MOSUNNY   88  52  29 W6        29.90S
CULPEPER*      PTSUNNY   83  59  43 NW6       29.91S
MANASSAS*      MOSUNNY   86  61  42 VRB7      29.90R
LEESBURG*      MOSUNNY  N/A N/A N/A W7        29.91R
WINCHESTER     CLOUDY    81  57  44 W9        29.92R
FRONT ROYAL*   CLOUDY    81  57  44 W5        29.92R
LURAY*         MOCLDY    81  55  41 W5        29.94R
$$

VAZ048-049-060>072-079>083-242000-
CENTRAL AND SOUTH CENTRAL VIRGINIA

CITY           SKY/WX    TMP DP  RH WIND       PRES   REMARKS
RICHMOND       PTSUNNY   89  66  46 W12G20    29.89F
CHESTERFIELD*  FAIR      88  68  51 W9        29.91S
PETERSBURG*    MOSUNNY   88  65  45 CALM      29.92R
HANOVER        MOSUNNY   87  63  44 SW9G17    29.90F
TAPPAHANNOCK*  MOSUNNY   88  55  32 W8        29.89F
QUINTON*       FAIR     N/A N/A N/A NW7       29.88S
CHARLOTTSVILLE MOSUNNY   85  62  46 CALM      29.92R
GORDONSVILLE*  CLEAR     85  59  41 NW7       29.90S
ORANGE*        SUNNY     84  52  32 W9G16     29.90F
LOUISA*        SUNNY     90  66  45 SW8       29.89F
BUMPASS*       FAIR      86  68  54 W5        29.89F
FARMVILLE*     PTSUNNY   87  60  40 SW7       29.91S
CREWE*         FAIR      86  62  43 W5        29.92S
FORT PICKETT*  MOCLDY   N/A N/A N/A W10G18    29.93R
CHASE CITY*    FAIR      84  67  57 CALM      29.94S
CLARKSVILLE*   FAIR      84  70  61 W7        29.93S
SOUTH HILL*    PTSUNNY   86  70  59 W9        29.99S
LAWRENCEVILLE* FAIR      85  67  54 MISG      29.92S
EMPORIA*       MOSUNNY   88  68  51 S8        29.92F
$$

VAZ088>098-242000-
SOUTHEAST VIRGINIA

CITY           SKY/WX    TMP DP  RH WIND       PRES   REMARKS
NORFOLK        SUNNY     91  67  44 W8        29.89S
VIRGINIA BEACH MOSUNNY   89  66  46 VRB5      29.88S
NORFOLK NAVAL  MOSUNNY   89  65  44 W8        29.90F
WEST POINT*    PTSUNNY   87  63  43 SW7       29.89S
SALUDA*        MOCLDY    87  70  56 NW3       29.88S
NEWPORT NEWS   CLOUDY    88  68  51 SW12      29.89S
LANGLEY AFB    PTSUNNY   87  70  56 SW10      29.89R
FORT EUSTIS    CLOUDY    92  70  47 W7        29.87F HX  98
WILLIAMSBURG*  SUNNY     93  70  46 W7        29.90S HX  99
HR EXEC AP*    FAIR      90  70  51 W6        29.87S HX  95
FRANKLIN*      NOT AVBL
US460-WAKEFLD  MOSUNNY   89  68  49 W8        29.90S
$$

VAZ020-022-025-037-045-242000-
WEST CENTRAL AND SOUTHWEST VIRGINIA

CITY           SKY/WX    TMP DP  RH WIND       PRES   REMARKS
STAUNTON*      MOSUNNY   81  56  42 CALM      29.97R
WAYNESBORO*    PTCLDY    80  60  51 SW9       29.97S
HOT SPRINGS VA SUNNY     70  46  43 NW7G21    30.09S
LYNCHBURG      CLOUDY    83  65  54 VRB3      29.96S
DANVILLE       CLOUDY    84  70  62 W5        29.94S
SOUTH BOSTON*  FAIR      85  67  54 W6        29.94S
MARTINSVILLE   MOSUNNY   83  69  62 W3        29.98F
ROANOKE        CLOUDY    83  63  50 W9        29.98S
BLACKSBURG     PTSUNNY   79  63  58 NW8       30.05F
DUBLIN*        MOSUNNY   82  57  42 NW8       30.03F
MARION*        CLOUDY    76  64  66 NW6       30.07F
HILLSVILLE*    CLOUDY    77  59  53 W3G16     30.05S
RICHLANDS*     MOCLDY    74  64  70 NW6       30.07F
WISE*          MOSUNNY   77  59  53 NW7       30.10R
ABINGDON*      MOSUNNY   80  67  65 W13G18    30.04F
$$

MDZ021>025-VAZ099-100-242000-
SOUTHERN MARYLAND AND THE DELMARVA PENINSULA

CITY           SKY/WX    TMP DP  RH WIND       PRES   REMARKS
PATUXENT RIVER PTSUNNY   86  65  49 W5        29.87S
BAY BRIDGE APT MOSUNNY   84  61  45 W13G20    29.86R
LEONARDTOWN    MOSUNNY   86  63  45 W7        29.89R
DOVER          PTSUNNY   86  66  51 W13       29.83R
GEORGETOWN     MOSUNNY   87  60  40 W15G24    29.86R
EASTON         MOSUNNY   86  61  42 NW12      29.90R
CAMBRIDGE      SUNNY     86  63  45 W9G16     29.87S
SALISBURY      MOSUNNY   86  65  49 W15       29.86S
OCEAN CITY     SUNNY     87  65  47 W9G21     29.86S
WALLOPS ISLAND MOSUNNY   87  68  52 W14       29.88S
ACCOMACK*      SUNNY     87  67  50 W9        29.89S
$$

NCZ012>017-030>032-242000-
NORTH CENTRAL AND EASTERN NORTH CAROLINA

CITY           SKY/WX    TMP DP  RH WIND       PRES   REMARKS
ROANOKE RAPIDS FAIR      88  72  58 SW9       29.92F
RALEIGH        CLOUDY    88  71  57 CALM      29.94S
ELIZABETH CITY SUNNY     88  71  57 SW10      29.91F
AHOSKIE*         N/A     87  71  58 CALM      29.92F
EDENTON*       SUNNY     91  70  49 W7        29.92F HX  96
CURRITUCK*     MOSUNNY   89  69  51 SW12      29.92S
KILL DEVIL HLS SUNNY     87  69  55 W9        29.91S
MANTEO         MOSUNNY   88  73  61 N8        29.92S HX  95
CAPE HATTERAS  CLOUDY    83  75  77 SW16G23   29.95F
TARBORO*       NOT AVBL
GOLDSBORO      MOSUNNY   84  81  89 W6        29.91S HX  98
WASHINGTON     MOSUNNY  N/A N/A N/A SW6       29.92F
GREENVILLE     MOSUNNY   91  72  52 W5        29.94S HX  98
NEW BERN       PTSUNNY   88  76  67 SW8       29.93F THUNDER HX  99
WILMINGTON     MOSUNNY   91  74  57 S16       29.95S HX 100
$$

VAZ048-242000-
ELSEWHERE

CITY           SKY/WX    TMP DP  RH WIND       PRES   REMARKS
HARRISBURG PA  PTSUNNY   84  60  44 W10       29.84R
BALTIMORE      PTSUNNY   85  60  42 W15G21    29.86R
ANNAPOLIS      MOSUNNY   84  63  49 W8        29.86R
ANDREWS AFB    PTSUNNY   85  58  41 W8        29.87R
PHILADELPHIA   MOSUNNY   87  56  34 W16G25    29.81R
HENDERSON NC   CLOUDY    84  68  57 W5        29.94S
GREENSBORO     CLOUDY    85  72  65 SW7       29.94F
ROCKY MOUNT    CLOUDY    90  72  55 VRB5      29.92F HX  97
$$

VAZ100-242000-
MARINE

STATION/POSITION TIME  TEMP    WIND        PRES    WAVE   SWELL
                       AIR SEA DIR/SP/G            HT/PER HT/PER
                 (UTC) (F)     (DEG/KT/KT) (MB)    (FT/S) (FT/S)
BRANDYWINE LGT   1848          310/ 12/ 14   N/A
CAPE MAY NJ      1848   83 77  290/  8/ 11 1010.1R
LEWES DE         1848   83 69  300/ 14/ 19 1010.4R
15NM E FENWICK I 1750   72 67  260/  8/ 10 1011.1    5/ 8   5/ 8
WACHAPREAGUE VA  1848   89 85  270/  1/  9 1011.7F
THOMAS POINT MD  1900   83 78  280/ 13/ 16   N/A
GOOSES REEF MD   1850   83     300/  6/  8 1012.3S
COVE POINT MD    1848   85     300/  5/ 11 1012.1R
SOLOMONS ISLAND  1848   86 77  290/  5/  9   N/A
BISHOPS HEAD MD  1848   82 83  290/  6/  8 1011.9R
PINEY POINT MD   1842          340/  7/  8   N/A
POTOMAC MD       1850   83     330/  6/  8 1010.8R
CAMBRIDGE MD     1848   86 82              1012.3R
LEWISETTA VA     1848   83 76   10/  5/  6 1011.6R
RAPPAHANNOCK LGT 1848          290/  3/  4 1012.7S
STINGRAY PT      1850   84     310/  2/  4 1012.8R
YORK RVR RNG VA  1848   85     270/ 10/ 11 1012.4R
YORKTOWN VA      1848   86 78  270/  8/ 13 1011.7S
JAMESTOWN VA     1850   85     280/  4/ 10   N/A
DOMINION TERM VA 1848   87     250/  9/ 10 1012.3F
KIPTOPEKE VA     1848      76  230/  5/  7   N/A
CHES BAY BRIDGE  1848   83 75  320/  9/ 10 1012.2S
CAPE HENRY VA    1848   85     300/  9/ 11   N/A
WILLOUBY STN VA  1848   84     240/  8/  9 1012.3S
S CRANEY ISL VA  1848   88     240/  5/ 11 1012.1F
CAPE HENRY BUOY  1830      72                N/A     3/ 7
1ST LANDING BUOY 1850   83                 1012.2F
CAPE CHARLES BUO 1851      70                N/A     2/ 9
64NM E OF VA BCH 1850   75 73  220/  2/  4 1013.8R   6/ 7   7/ 7
DUCK PIER NC     1848   86 59  250/ 10/ 12 1012.5F
44100 DUCK FRF   1805      71                N/A     3/ 8
OREGON INLET NC  1848          200/ 14/ 17   N/A
HATTERAS NC      1848   81 78  230/ 13/ 20 1014.0F
DIAMOND SHLS NC  1850   81 80  230/ 19/ 23 1014.0F   8/ 7
CAPE LOOKOUT NC  1800   83     220/ 16/ 21 1014.4F
$$




USA.gov is the U.S. government's official web portal to all federal, state and local government web resources and services.